User: anonymous   Login
Location: Okie-Tex Star Party
(36.8978°N, 102.9520°W)
Time: 12:58:59
(UTC-05:00)
Language:

Hamsat - Orbit

View from above orbital plane
View from above orbital plane
View from above satellite
View from above satellite

Ground track
Ground track

The orbit data is extracted from the following two-line orbital elements,

1 28650U 05017B   17116.93612266 +.00000629 +00000-0 +72955-4 0  9994
2 28650 097.6469 093.0255 0022235 302.6052 057.3019 14.88634351648477
Epoch (UTC): 26 April 2017 22:28:00
Eccentricity: 0.0022235
inclination: 97.6469°
perigee height: 586 km
apogee height: 618 km
right ascension of ascending node: 93.0255°
argument of perigee: 302.6052°
revolutions per day: 14.88634351
mean anomaly at epoch: 57.3019°
orbit number at epoch: 64847

The dashed part of the orbit path shows where the satellite is in the earth's shadow,  

DLR